St. Petersburg, FL

4:07 PM EST on November 22, 2017 (GMT -0500)
Whitted

Weather History for KSPG - June, 2012

Change the Weather History Date:

Friday, June 15, 2012

  Actual Average Record
Temperature  
Mean Temperature 82 °F -  
Max Temperature 89 °F 89 °F 98 °F (1964)
Min Temperature 75 °F 74 °F 67 °F (1955)
Cooling Degree Days 17    
Growing Degree Days 32 (Base 50)    
Moisture  
Dew Point 73 °F    
Average Humidity 80    
Maximum Humidity 90    
Minimum Humidity 55    
Precipitation  
Precipitation 0.37 in - - ()
Sea Level Pressure  
Sea Level Pressure 29.99 in    
Wind  
Wind Speed 10 mph (ENE)    
Max Wind Speed 25 mph    
Max Gust Speed 34 mph    
Visibility 8 miles    
Events Fog , Rain , Thunderstorm    
Averages and records for this station are not official NWS values.
T = Trace of Precipitation, MM = Missing Value Source: NWS Daily Summary

Daily Weather History Graph

Daily Weather History Graph

Search for Another Location

Airport or City:

Trip Planner

Search our weather history database for the weather conditions in past years. The results will help you decide how hot, cold, wet, or windy it might be!

Date:

Astronomy

Jun. 15, 2012 Rise Set
Actual Time 6:34 AM EDT 8:27 PM EDT
Civil Twilight 6:07 AM EDT 8:54 PM EDT
Nautical Twilight 5:35 AM EDT 9:26 PM EDT
Astronomical Twilight 5:01 AM EDT 10:00 PM EDT
Moon 3:36 AM EDT (6/15) 5:15 PM EDT (6/15)
Length of Visible Light 14h 46m
Length of Day
13h 53m
Waning Crescent, 14% of the Moon is Illuminated
Jun 15
Waning Crescent
Jun 19
New
Jun 26
First Quarter
Jul 3
Full
Jul 10
Last Quarter

Hourly Weather History & Observations

Time (EDT) Temp. Heat Index Dew Point Humidity Pressure Visibility Wind Dir Wind Speed Gust Speed Precip Events Conditions
12:53 AM 77.0 °F - 71.1 °F 82% 30.00 in 10.0 mi East 9.2 mph - N/A   Clear
1:53 AM 77.0 °F - 71.1 °F 82% 29.98 in 10.0 mi ESE 6.9 mph - N/A   Clear
3:53 AM 77.0 °F - 72.0 °F 84% 29.95 in 10.0 mi East 6.9 mph - N/A   Clear
4:53 AM 77.0 °F - 71.1 °F 82% 29.95 in 10.0 mi East 6.9 mph - N/A   Clear
5:53 AM 77.0 °F - 72.0 °F 84% 29.95 in 10.0 mi ENE 8.1 mph - N/A   Clear
6:53 AM 77.0 °F - 73.0 °F 88% 29.96 in 10.0 mi ENE 10.4 mph - N/A   Partly Cloudy
7:41 AM 77.0 °F - 73.4 °F 89% 29.97 in 9.0 mi ENE 8.1 mph - N/A   Partly Cloudy
7:53 AM 77.0 °F - 73.9 °F 90% 29.97 in 8.0 mi ENE 9.2 mph - N/A   Partly Cloudy
8:53 AM 77.0 °F - 72.0 °F 84% 30.01 in 8.0 mi ENE 8.1 mph - N/A   Scattered Clouds
9:48 AM 78.8 °F - 73.4 °F 83% 30.02 in 9.0 mi ENE 9.2 mph - N/A   Mostly Cloudy
9:53 AM 79.0 °F - 73.9 °F 84% 30.02 in 8.0 mi ENE 8.1 mph - N/A   Mostly Cloudy
10:28 AM 80.6 °F 85.4 °F 73.4 °F 79% 30.02 in 10.0 mi East 9.2 mph - N/A   Scattered Clouds
10:53 AM 81.0 °F 86.7 °F 75.0 °F 82% 30.02 in 10.0 mi East 6.9 mph - N/A   Partly Cloudy
11:53 AM 82.9 °F 90.2 °F 75.0 °F 77% 30.02 in 10.0 mi East 3.5 mph - N/A   Clear
12:53 PM 86.0 °F 93.8 °F 73.9 °F 67% 30.01 in 10.0 mi Calm Calm - N/A   Clear
1:53 PM 88.0 °F 94.7 °F 72.0 °F 59% 30.00 in 10.0 mi Calm Calm - N/A   Clear
2:53 PM 89.1 °F 95.0 °F 71.1 °F 55% 29.97 in 10.0 mi Calm Calm - N/A   Clear
3:53 PM 79.0 °F - 71.1 °F 77% 29.99 in 1.2 mi NNE 25.3 mph 34.5 mph 0.16 in Rain , Thunderstorm Heavy Thunderstorms and Rain
4:01 PM 75.2 °F - 71.6 °F 89% 29.99 in 0.5 mi NE 23.0 mph 32.2 mph 0.15 in Fog , Rain , Thunderstorm Heavy Thunderstorms and Rain
4:08 PM 77.0 °F - 73.4 °F 89% 29.99 in 2.0 mi NE 17.3 mph 29.9 mph 0.16 in Rain , Thunderstorm Light Thunderstorms and Rain
4:16 PM 78.8 °F - 75.2 °F 89% 30.00 in 4.0 mi ENE 18.4 mph 24.2 mph 0.18 in Rain , Thunderstorm Thunderstorms and Rain
4:26 PM 78.8 °F - 75.2 °F 89% 30.00 in 2.5 mi East 17.3 mph - 0.21 in Rain , Thunderstorm Thunderstorms and Rain
4:33 PM 78.8 °F - 75.2 °F 89% 29.99 in 5.0 mi ENE 16.1 mph - 0.21 in Rain , Thunderstorm Light Thunderstorms and Rain
4:41 PM 78.8 °F - 75.2 °F 89% 29.99 in 10.0 mi ENE 15.0 mph - 0.21 in Rain Light Rain
4:53 PM 80.1 °F 85.4 °F 75.9 °F 87% 29.99 in 10.0 mi ENE 16.1 mph - 0.21 in Thunderstorm Mostly Cloudy
5:14 PM 80.6 °F 87.1 °F 77.0 °F 89% 29.98 in 10.0 mi ENE 10.4 mph - N/A   Partly Cloudy
5:53 PM 82.0 °F 87.9 °F 73.9 °F 76% 29.97 in 10.0 mi North - - N/A   Clear
6:53 PM 82.9 °F 87.5 °F 71.1 °F 67% 29.98 in 10.0 mi East 9.2 mph - N/A   Mostly Cloudy
7:53 PM 82.9 °F 88.8 °F 73.0 °F 72% 29.98 in 10.0 mi East 15.0 mph - 0.00 in Rain Light Rain
8:53 PM 82.0 °F 87.4 °F 73.0 °F 74% 30.00 in 10.0 mi East 21.9 mph - 0.00 in   Partly Cloudy
9:53 PM 81.0 °F 84.9 °F 71.1 °F 72% 30.03 in 10.0 mi East 20.7 mph - 0.00 in   Mostly Cloudy
10:53 PM 81.0 °F 84.9 °F 71.1 °F 72% 30.04 in 10.0 mi East 20.7 mph - N/A   Mostly Cloudy
11:53 PM 80.1 °F 83.6 °F 71.1 °F 74% 30.04 in 10.0 mi ENE 16.1 mph - N/A   Overcast